Location: Cucq
(50.4773°N, 1.6202°E)
Time: 16:10:47
(UTC+00:00)

Cosmos 2297 Rocket - Pass Details

Date: 07 August 2020
Orbit: 838 x 845 km, 71.0° (Epoch: 18 September)

Event Time Altitude Azimuth Distance (km) Brightness Sun altitude
Exits shadow 02:27:54 24° 231° (SW) 1,692 3.2 -15.7°
Maximum altitude 02:31:20 60° 304° (NW) 957 2.4 -15.3°
Drops below altitude 10° 02:36:56 10° 25° (NNE) 2,469 5.9 -14.8°
Sets 02:39:26 0° 29° (NNE) 3,409 7.1 -14.5°
